DLH431 KMIA-LEMD

Flight info

Callsign DLH431
Flight time 2h 51m
Altitude 35000
Route FOLZZ3 SUMRS/M083F350 M204 LUNKR/M083F370 M204 SOORY DCT 40N050W 41N040W 42N030W/M083F390 42N020W DCT BANAL/N0477F390 DCT ADORO/N0479F400 DCT ZMR
Aircraft A346/H-SDE2E3FGHIJ3J4J5M1RWXY/LB1D1

Departure

Time 2026-05-06 19:17
Airport Miami International Airport (KMIA)

Arrival

Time 2026-05-06 22:08
Airport Adolfo Suárez Madrid–Barajas Airport (LEMD)
Time Latitude Longitude Altitude Speed Heading
2026-05-06 18:55 25.79026 -80.27292 27 ft 0 kts 314°
2026-05-06 18:55 25.79026 -80.27291 27 ft 0 kts 314°
2026-05-06 18:57 25.79022 -80.27287 27 ft 0 kts 314°
2026-05-06 18:57 25.79004 -80.27267 25 ft 0 kts 314°
2026-05-06 18:58 25.78986 -80.27246 31 ft 0 kts 314°
2026-05-06 18:58 25.78968 -80.27225 31 ft 0 kts 314°
2026-05-06 18:58 25.78952 -80.27205 31 ft 0 kts 297°
2026-05-06 18:58 25.78950 -80.27201 31 ft 0 kts 293°
2026-05-06 18:59 25.78951 -80.27203 31 ft 0 kts 293°
2026-05-06 19:03 25.78949 -80.27199 26 ft 0 kts 293°
2026-05-06 19:04 25.78950 -80.27199 26 ft 0 kts 293°
2026-05-06 19:06 25.78953 -80.27211 34 ft 4 kts 287°
2026-05-06 19:06 25.78951 -80.27254 26 ft 7 kts 252°
2026-05-06 19:07 25.78930 -80.27309 28 ft 8 kts 256°
2026-05-06 19:07 25.78924 -80.27379 28 ft 9 kts 266°
2026-05-06 19:07 25.78919 -80.27450 30 ft 9 kts 265°
2026-05-06 19:07 25.78906 -80.27523 31 ft 10 kts 257°
2026-05-06 19:08 25.78889 -80.27612 31 ft 13 kts 258°
2026-05-06 19:08 25.78878 -80.27720 30 ft 15 kts 265°
2026-05-06 19:08 25.78872 -80.27836 31 ft 15 kts 268°
2026-05-06 19:08 25.78870 -80.27909 33 ft 8 kts 269°
2026-05-06 19:09 25.78881 -80.27963 34 ft 7 kts 302°
2026-05-06 19:09 25.78908 -80.28016 34 ft 9 kts 299°
2026-05-06 19:09 25.78943 -80.28083 34 ft 12 kts 299°
2026-05-06 19:09 25.78987 -80.28171 33 ft 14 kts 299°
2026-05-06 19:10 25.79036 -80.28268 33 ft 15 kts 299°
2026-05-06 19:10 25.79092 -80.28374 31 ft 17 kts 302°
2026-05-06 19:10 25.79167 -80.28498 28 ft 21 kts 304°
2026-05-06 19:10 25.79246 -80.28643 27 ft 23 kts 300°
2026-05-06 19:11 25.79329 -80.28805 30 ft 25 kts 298°
2026-05-06 19:11 25.79407 -80.28963 28 ft 21 kts 299°
2026-05-06 19:11 25.79481 -80.29068 28 ft 16 kts 332°
2026-05-06 19:11 25.79576 -80.29107 30 ft 14 kts 311°
2026-05-06 19:12 25.79625 -80.29203 32 ft 15 kts 299°
2026-05-06 19:12 25.79680 -80.29309 30 ft 17 kts 300°
2026-05-06 19:12 25.79742 -80.29429 30 ft 19 kts 299°
2026-05-06 19:12 25.79811 -80.29567 28 ft 22 kts 299°
2026-05-06 19:13 25.79892 -80.29726 27 ft 25 kts 299°
2026-05-06 19:13 25.79958 -80.29886 28 ft 19 kts 290°
2026-05-06 19:13 25.79970 -80.29934 26 ft 0 kts 285°
2026-05-06 19:14 25.79975 -80.29954 23 ft 7 kts 285°
2026-05-06 19:14 25.79991 -80.30018 25 ft 10 kts 285°
2026-05-06 19:15 25.80011 -80.30093 30 ft 10 kts 295°
2026-05-06 19:15 25.80062 -80.30093 31 ft 10 kts 56°
2026-05-06 19:15 25.80074 -80.30018 28 ft 9 kts 87°
2026-05-06 19:15 25.80074 -80.30013 28 ft 0 kts 87°
2026-05-06 19:16 25.80079 -80.29908 27 ft 41 kts 87°
2026-05-06 19:16 25.80101 -80.29367 30 ft 98 kts 87°
2026-05-06 19:16 25.80141 -80.28423 30 ft 146 kts 88°
2026-05-06 19:17 25.80196 -80.27148 99 ft 178 kts 89°
2026-05-06 19:17 25.80252 -80.25763 554 ft 181 kts 92°
2026-05-06 19:17 25.79947 -80.24424 1070 ft 182 kts 116°
2026-05-06 19:17 25.79338 -80.23190 1687 ft 182 kts 120°
2026-05-06 19:18 25.78691 -80.21944 2062 ft 193 kts 118°
2026-05-06 19:18 25.78028 -80.20584 2354 ft 208 kts 118°
2026-05-06 19:18 25.77327 -80.19108 2659 ft 224 kts 117°
2026-05-06 19:18 25.76573 -80.17542 2919 ft 242 kts 119°
2026-05-06 19:19 25.75721 -80.15826 3253 ft 259 kts 119°
2026-05-06 19:19 25.74849 -80.14067 3766 ft 267 kts 118°
2026-05-06 19:19 25.74209 -80.12131 4435 ft 270 kts 95°
2026-05-06 19:19 25.74475 -80.10071 5120 ft 274 kts 67°
2026-05-06 19:20 25.75556 -80.08320 5780 ft 278 kts 49°
2026-05-06 19:20 25.76847 -80.06710 6507 ft 280 kts 48°
2026-05-06 19:20 25.78147 -80.05091 7168 ft 281 kts 48°
2026-05-06 19:20 25.79450 -80.03459 7859 ft 282 kts 47°
2026-05-06 19:21 25.80751 -80.01822 8565 ft 283 kts 47°
2026-05-06 19:21 25.82059 -80.00172 9226 ft 286 kts 47°
2026-05-06 19:21 25.83373 -79.98509 9884 ft 288 kts 47°
2026-05-06 19:21 25.84702 -79.96826 10409 ft 293 kts 47°
2026-05-06 19:22 25.86079 -79.95082 10685 ft 307 kts 47°
2026-05-06 19:22 25.87524 -79.93251 10941 ft 322 kts 47°
2026-05-06 19:22 25.89011 -79.91363 11192 ft 336 kts 47°
2026-05-06 19:22 25.90584 -79.89365 11445 ft 350 kts 47°
2026-05-06 19:23 25.92216 -79.87287 11683 ft 364 kts 47°
2026-05-06 19:23 25.93909 -79.85132 11966 ft 375 kts 47°
2026-05-06 19:23 25.95657 -79.82904 12527 ft 378 kts 47°
2026-05-06 19:23 25.97385 -79.80699 13167 ft 379 kts 47°
2026-05-06 19:24 25.99121 -79.78480 13794 ft 381 kts 47°
2026-05-06 19:24 26.00864 -79.76254 14304 ft 383 kts 47°
2026-05-06 19:24 26.02599 -79.74037 14780 ft 387 kts 46°
2026-05-06 19:24 26.04376 -79.71764 15240 ft 390 kts 46°
2026-05-06 19:25 26.06168 -79.69474 15703 ft 394 kts 46°
2026-05-06 19:25 26.07972 -79.67165 16163 ft 397 kts 46°
2026-05-06 19:25 26.09781 -79.64823 16621 ft 401 kts 47°
2026-05-06 19:25 26.11529 -79.62324 17082 ft 405 kts 50°
2026-05-06 19:26 26.13159 -79.59794 17529 ft 409 kts 51°
2026-05-06 19:26 26.14811 -79.57196 17959 ft 413 kts 51°
2026-05-06 19:26 26.16475 -79.54571 18381 ft 416 kts 51°
2026-05-06 19:26 26.18153 -79.51925 18747 ft 419 kts 51°
2026-05-06 19:27 26.19843 -79.49257 19099 ft 423 kts 51°
2026-05-06 19:27 26.21556 -79.46554 19455 ft 427 kts 51°
2026-05-06 19:27 26.23275 -79.43841 19829 ft 430 kts 51°
2026-05-06 19:27 26.25004 -79.41107 20217 ft 432 kts 51°
2026-05-06 19:28 26.26765 -79.38367 20582 ft 434 kts 48°
2026-05-06 19:28 26.28753 -79.35839 20953 ft 433 kts 41°
2026-05-06 19:28 26.31000 -79.33608 21317 ft 432 kts 34°
2026-05-06 19:28 26.33458 -79.31682 21693 ft 433 kts 30°
2026-05-06 19:29 26.35999 -79.29857 22063 ft 435 kts 29°
2026-05-06 19:29 26.38563 -79.28042 22419 ft 438 kts 28°
2026-05-06 19:29 26.41141 -79.26217 22762 ft 441 kts 28°
2026-05-06 19:29 26.43740 -79.24374 23121 ft 444 kts 29°
2026-05-06 19:30 26.46357 -79.22514 23478 ft 446 kts 28°
2026-05-06 19:30 26.48985 -79.20640 23787 ft 449 kts 28°
2026-05-06 19:30 26.51629 -79.18754 24070 ft 452 kts 28°
2026-05-06 19:30 26.54291 -79.16854 24375 ft 454 kts 28°
2026-05-06 19:31 26.56924 -79.14972 24685 ft 456 kts 28°
2026-05-06 19:31 26.59611 -79.13051 24993 ft 459 kts 28°
2026-05-06 19:31 26.65013 -79.09184 25617 ft 463 kts 28°
2026-05-06 19:32 26.67731 -79.07237 25930 ft 465 kts 28°
2026-05-06 19:32 26.70464 -79.05278 26241 ft 467 kts 28°
2026-05-06 19:32 26.73214 -79.03305 26568 ft 469 kts 28°
2026-05-06 19:32 26.75965 -79.01330 26894 ft 471 kts 28°
2026-05-06 19:33 26.78725 -78.99347 27189 ft 473 kts 28°
2026-05-06 19:33 26.81502 -78.97352 27492 ft 475 kts 28°
2026-05-06 19:33 26.84292 -78.95347 27791 ft 478 kts 28°
2026-05-06 19:33 26.87097 -78.93329 28100 ft 480 kts 27°
2026-05-06 19:34 26.89908 -78.91306 28397 ft 482 kts 27°
2026-05-06 19:34 26.92735 -78.89270 28744 ft 483 kts 27°
2026-05-06 19:34 26.95555 -78.87236 29194 ft 481 kts 27°
2026-05-06 19:34 26.98331 -78.85231 29678 ft 480 kts 27°
2026-05-06 19:35 27.01131 -78.83208 30145 ft 478 kts 27°
2026-05-06 19:35 27.03925 -78.81188 30550 ft 477 kts 27°
2026-05-06 19:35 27.06725 -78.79163 30915 ft 477 kts 27°
2026-05-06 19:35 27.09513 -78.77149 31268 ft 477 kts 27°
2026-05-06 19:36 27.12300 -78.75133 31635 ft 476 kts 27°
2026-05-06 19:36 27.15082 -78.73119 32007 ft 476 kts 26°
2026-05-06 19:36 27.17868 -78.71101 32377 ft 475 kts 26°
2026-05-06 19:36 27.20644 -78.69074 32744 ft 476 kts 27°
2026-05-06 19:37 27.23351 -78.66918 33156 ft 477 kts 31°
2026-05-06 19:37 27.25924 -78.64635 33615 ft 477 kts 33°
2026-05-06 19:37 27.28427 -78.62169 34003 ft 479 kts 36°
2026-05-06 19:37 27.30058 -78.60413 34186 ft 482 kts 38°
2026-05-06 19:38 27.33119 -78.56749 34476 ft 488 kts 42°
2026-05-06 19:38 27.35300 -78.53798 34706 ft 492 kts 45°
2026-05-06 19:38 27.36711 -78.51803 34867 ft 493 kts 45°
2026-05-06 19:38 27.38842 -78.48764 35064 ft 495 kts 45°
2026-05-06 19:39 27.43104 -78.42664 35091 ft 496 kts 45°
2026-05-06 19:39 27.47375 -78.36552 35088 ft 496 kts 45°
2026-05-06 19:40 27.51647 -78.30439 35088 ft 496 kts 45°
2026-05-06 19:40 27.55917 -78.24322 35082 ft 496 kts 45°
2026-05-06 19:41 27.60164 -78.18229 35101 ft 497 kts 45°
2026-05-06 19:41 27.64438 -78.12093 35087 ft 497 kts 45°
2026-05-06 19:42 27.68710 -78.05951 35094 ft 497 kts 45°
2026-05-06 19:42 35.32316 -66.40753 35092 ft 481 kts 47°
2026-05-06 19:43 35.34291 -66.37417 35199 ft 487 kts 54°
2026-05-06 19:43 35.36243 -66.33992 35306 ft 492 kts 55°
2026-05-06 19:43 35.38188 -66.30517 35430 ft 497 kts 56°
2026-05-06 19:43 35.40153 -66.26996 35540 ft 502 kts 56°
2026-05-06 19:44 35.44144 -66.19865 35750 ft 511 kts 56°
2026-05-06 19:44 35.46169 -66.16251 35858 ft 516 kts 56°
2026-05-06 19:44 35.48217 -66.12596 35960 ft 521 kts 56°
2026-05-06 19:45 35.50277 -66.08918 36107 ft 525 kts 56°
2026-05-06 19:45 35.52353 -66.05209 36337 ft 526 kts 56°
2026-05-06 19:45 35.54396 -66.01557 36633 ft 525 kts 56°
2026-05-06 19:45 35.56468 -65.97851 36904 ft 525 kts 56°
2026-05-06 19:46 35.58538 -65.94145 37139 ft 526 kts 56°
2026-05-06 19:46 35.60617 -65.90418 37246 ft 529 kts 56°
2026-05-06 19:46 35.64804 -65.82898 37247 ft 534 kts 56°
2026-05-06 19:47 35.68992 -65.75357 37236 ft 532 kts 56°
2026-05-06 19:47 35.73169 -65.67822 37240 ft 531 kts 56°
2026-05-06 19:48 35.77305 -65.60346 37223 ft 532 kts 56°
2026-05-06 19:48 35.81483 -65.52777 37240 ft 535 kts 56°
2026-05-06 19:49 35.85670 -65.45174 37245 ft 535 kts 56°
2026-05-06 19:49 35.89848 -65.37571 37244 ft 535 kts 56°
2026-05-06 19:50 35.94024 -65.29954 37246 ft 535 kts 56°
2026-05-06 19:50 35.98214 -65.22298 37236 ft 540 kts 56°
2026-05-06 19:51 36.00292 -65.18452 37063 ft 523 kts 51°
2026-05-06 19:51 36.02256 -65.14772 37257 ft 502 kts 51°
2026-05-06 19:51 36.04126 -65.11257 37145 ft 489 kts 51°
2026-05-06 19:51 41.99834 -30.03842 37173 ft 481 kts 85°
2026-05-06 19:52 42.00289 -29.94787 37376 ft 491 kts 82°
2026-05-06 19:52 42.00675 -29.85449 37440 ft 507 kts 82°
2026-05-06 19:53 42.01072 -29.75820 37436 ft 523 kts 82°
2026-05-06 19:53 42.01471 -29.65988 37431 ft 528 kts 82°
2026-05-06 19:54 42.01864 -29.56101 37432 ft 528 kts 82°
2026-05-06 19:54 42.02248 -29.46215 37438 ft 527 kts 82°
2026-05-06 19:55 42.02624 -29.36356 37428 ft 526 kts 82°
2026-05-06 19:55 42.02994 -29.26523 37431 ft 526 kts 82°
2026-05-06 19:56 42.03356 -29.16679 37430 ft 526 kts 82°
2026-05-06 19:56 42.03710 -29.06824 37430 ft 526 kts 82°
2026-05-06 19:57 42.04054 -28.96973 37426 ft 526 kts 82°
2026-05-06 19:57 42.04390 -28.87129 37426 ft 526 kts 83°
2026-05-06 19:58 42.04716 -28.77288 37429 ft 526 kts 83°
2026-05-06 19:58 42.05031 -28.67449 37433 ft 525 kts 82°
2026-05-06 19:59 42.05341 -28.57626 37429 ft 524 kts 82°
2026-05-06 19:59 42.05642 -28.47803 37430 ft 524 kts 82°
2026-05-06 20:00 42.05934 -28.38058 37427 ft 524 kts 82°
2026-05-06 20:00 42.06215 -28.28241 37433 ft 524 kts 82°
2026-05-06 20:01 42.06493 -28.18435 37427 ft 524 kts 82°
2026-05-06 20:01 42.06762 -28.08619 37421 ft 524 kts 82°
2026-05-06 20:02 42.06827 -28.06169 37422 ft 524 kts 82°
2026-05-06 20:03 42.06847 -28.05437 37422 ft 524 kts 82°
2026-05-06 20:03 42.07102 -27.95624 37441 ft 524 kts 82°
2026-05-06 20:04 42.07347 -27.85876 37428 ft 523 kts 82°
2026-05-06 20:04 42.07587 -27.76067 37421 ft 523 kts 82°
2026-05-06 20:05 42.07818 -27.66252 37423 ft 523 kts 82°
2026-05-06 20:05 42.09611 -23.12150 37537 ft 523 kts 84°
2026-05-06 20:05 42.09491 -23.07245 37448 ft 524 kts 85°
2026-05-06 20:06 42.09186 -22.97390 37384 ft 525 kts 85°
2026-05-06 20:06 42.08949 -22.87612 37371 ft 525 kts 84°
2026-05-06 20:07 42.08746 -22.77771 37397 ft 524 kts 84°
2026-05-06 20:07 42.08548 -22.67946 37369 ft 523 kts 84°
2026-05-06 20:08 42.08347 -22.58138 37361 ft 523 kts 84°
2026-05-06 20:08 42.08138 -22.48340 37362 ft 523 kts 84°
2026-05-06 20:09 42.07919 -22.38547 37369 ft 521 kts 84°
2026-05-06 20:09 42.07694 -22.28834 37355 ft 521 kts 84°
2026-05-06 20:10 42.07460 -22.19071 37348 ft 521 kts 84°
2026-05-06 20:10 42.07218 -22.09310 37352 ft 521 kts 84°
2026-05-06 20:11 42.06968 -21.99554 37349 ft 521 kts 84°
2026-05-06 20:11 42.06708 -21.89787 37349 ft 521 kts 84°
2026-05-06 20:12 42.06441 -21.80024 37380 ft 521 kts 84°
2026-05-06 20:12 42.06166 -21.70291 37357 ft 520 kts 84°
2026-05-06 20:13 42.05883 -21.60552 37345 ft 520 kts 85°
2026-05-06 20:13 42.05591 -21.50806 37345 ft 520 kts 85°
2026-05-06 20:14 42.05293 -21.41134 37360 ft 519 kts 85°
2026-05-06 20:14 42.04986 -21.31421 37350 ft 519 kts 85°
2026-05-06 20:15 42.04670 -21.21703 37342 ft 519 kts 85°
2026-05-06 20:15 42.04347 -21.11996 37365 ft 518 kts 85°
2026-05-06 20:16 42.04014 -21.02307 37341 ft 516 kts 85°
2026-05-06 20:16 42.03867 -20.98062 37338 ft 516 kts 85°
2026-05-06 20:19 42.03626 -20.91227 37336 ft 516 kts 85°
2026-05-06 20:20 42.03279 -20.81562 37336 ft 516 kts 85°
2026-05-06 20:20 42.02925 -20.71909 37338 ft 515 kts 85°
2026-05-06 20:21 42.02561 -20.62283 37333 ft 514 kts 85°
2026-05-06 20:21 42.02189 -20.52653 37326 ft 514 kts 85°
2026-05-06 20:22 42.01812 -20.43030 37338 ft 513 kts 86°
2026-05-06 20:22 42.01426 -20.33439 37325 ft 513 kts 86°
2026-05-06 20:23 42.01029 -20.23857 37318 ft 512 kts 86°
2026-05-06 20:23 42.00624 -20.14270 37316 ft 512 kts 86°
2026-05-06 20:24 42.00220 -20.04758 37323 ft 511 kts 86°
2026-05-06 20:24 42.00100 -19.95233 37318 ft 506 kts 82°
2026-05-06 20:25 42.00299 -19.85768 37322 ft 506 kts 81°
2026-05-06 20:25 42.00507 -19.76297 37334 ft 505 kts 82°
2026-05-06 20:26 42.00693 -19.66832 37311 ft 505 kts 82°
2026-05-06 20:26 42.00863 -19.57373 37309 ft 505 kts 82°
2026-05-06 20:27 42.01028 -19.47909 37304 ft 505 kts 82°
2026-05-06 20:27 42.01192 -19.38513 37314 ft 505 kts 83°
2026-05-06 20:28 42.01339 -19.29064 37309 ft 504 kts 83°
2026-05-06 20:28 42.01479 -19.19625 37305 ft 504 kts 83°
2026-05-06 20:29 42.01615 -19.10181 37326 ft 504 kts 84°
2026-05-06 20:29 42.01744 -19.00738 37301 ft 504 kts 84°
2026-05-06 20:30 42.01900 -18.88118 37299 ft 503 kts 84°
2026-05-06 20:31 42.02008 -18.78748 37295 ft 504 kts 84°
2026-05-06 20:31 42.02109 -18.69311 37294 ft 504 kts 84°
2026-05-06 20:32 42.02218 -18.58277 37295 ft 504 kts 84°
2026-05-06 20:32 42.02289 -18.50433 37294 ft 504 kts 84°
2026-05-06 20:33 42.02369 -18.41000 37306 ft 504 kts 84°
2026-05-06 20:33 42.02439 -18.31562 37295 ft 504 kts 84°
2026-05-06 20:34 42.02502 -18.22123 37295 ft 504 kts 84°
2026-05-06 20:34 42.02557 -18.12687 37286 ft 504 kts 84°
2026-05-06 20:35 42.02603 -18.03249 37294 ft 504 kts 85°
2026-05-06 20:35 42.02643 -17.93806 37284 ft 504 kts 85°
2026-05-06 20:36 42.02676 -17.84363 37279 ft 504 kts 85°
2026-05-06 20:36 42.02700 -17.74927 37274 ft 504 kts 85°
2026-05-06 20:37 42.02716 -17.65550 37283 ft 504 kts 85°
2026-05-06 20:37 42.02725 -17.56110 37275 ft 504 kts 85°
2026-05-06 20:38 42.02726 -17.46670 37268 ft 504 kts 85°
2026-05-06 20:38 42.02719 -17.37231 37294 ft 504 kts 85°
2026-05-06 20:39 42.02705 -17.27790 37263 ft 504 kts 85°
2026-05-06 20:39 42.02683 -17.18351 37270 ft 504 kts 85°
2026-05-06 20:40 42.02653 -17.08918 37266 ft 504 kts 85°
2026-05-06 20:40 42.02615 -16.99469 37262 ft 504 kts 85°
2026-05-06 20:41 42.02570 -16.90024 37262 ft 504 kts 85°
2026-05-06 20:41 42.02517 -16.80576 37257 ft 504 kts 85°
2026-05-06 20:42 42.02457 -16.71122 37250 ft 504 kts 85°
2026-05-06 20:42 42.02388 -16.61734 37255 ft 504 kts 85°
2026-05-06 20:43 42.02312 -16.52272 37236 ft 504 kts 85°
2026-05-06 20:43 42.02228 -16.42827 37246 ft 504 kts 85°
2026-05-06 20:44 42.02136 -16.33388 37270 ft 504 kts 85°
2026-05-06 20:44 42.02037 -16.23955 37250 ft 504 kts 85°
2026-05-06 20:45 42.01930 -16.14519 37240 ft 504 kts 86°
2026-05-06 20:45 42.01815 -16.05086 37239 ft 504 kts 86°
2026-05-06 20:46 42.01695 -15.95651 37252 ft 504 kts 86°
2026-05-06 20:46 42.01565 -15.86227 37239 ft 504 kts 86°
2026-05-06 20:47 42.01426 -15.76849 37229 ft 504 kts 86°
2026-05-06 20:47 42.01279 -15.67417 37231 ft 504 kts 86°
2026-05-06 20:48 42.01131 -15.57980 37237 ft 503 kts 87°
2026-05-06 20:48 42.00967 -15.48552 37228 ft 503 kts 87°
2026-05-06 20:49 42.00795 -15.39131 37224 ft 503 kts 87°
2026-05-06 20:49 42.00615 -15.29615 37220 ft 503 kts 87°
2026-05-06 20:50 42.00430 -15.20203 37214 ft 503 kts 88°
2026-05-06 20:50 42.00236 -15.10785 37213 ft 503 kts 88°
2026-05-06 20:51 42.00034 -15.01369 37215 ft 503 kts 88°
2026-05-06 20:51 41.99837 -14.91964 37231 ft 503 kts 88°
2026-05-06 20:52 41.99636 -14.82549 37216 ft 503 kts 88°
2026-05-06 20:52 41.99417 -14.73137 37213 ft 503 kts 88°
2026-05-06 20:53 41.99192 -14.63778 37212 ft 503 kts 88°
2026-05-06 20:53 41.98962 -14.54375 37223 ft 503 kts 89°
2026-05-06 20:54 41.98725 -14.44975 37206 ft 502 kts 89°
2026-05-06 20:54 41.98474 -14.35572 37207 ft 502 kts 89°
2026-05-06 20:55 41.98217 -14.26162 37204 ft 502 kts 89°
2026-05-06 20:55 41.97958 -14.16761 37207 ft 502 kts 90°
2026-05-06 20:56 41.97687 -14.07372 37197 ft 502 kts 90°
2026-05-06 20:56 41.97407 -13.97991 37193 ft 502 kts 90°
2026-05-06 20:57 41.97120 -13.88602 37200 ft 502 kts 90°
2026-05-06 20:57 41.96831 -13.79216 37195 ft 502 kts 91°
2026-05-06 20:58 41.96529 -13.69836 37189 ft 501 kts 91°
2026-05-06 20:58 41.96221 -13.60528 37190 ft 501 kts 91°
2026-05-06 20:59 41.95904 -13.51148 37186 ft 501 kts 91°
2026-05-06 20:59 41.95583 -13.41766 37190 ft 501 kts 91°
2026-05-06 21:00 41.95251 -13.32398 37185 ft 501 kts 91°
2026-05-06 21:00 41.94912 -13.23029 37183 ft 501 kts 91°
2026-05-06 21:01 41.94562 -13.13583 37180 ft 501 kts 91°
2026-05-06 21:01 41.94209 -13.04214 37181 ft 502 kts 91°
2026-05-06 21:02 41.93846 -12.94804 37174 ft 502 kts 91°
2026-05-06 21:02 41.93475 -12.85397 37172 ft 502 kts 91°
2026-05-06 21:03 41.93100 -12.76074 37181 ft 502 kts 92°
2026-05-06 21:03 41.92714 -12.66676 37171 ft 502 kts 92°
2026-05-06 21:04 41.92322 -12.57302 37169 ft 502 kts 92°
2026-05-06 21:04 41.91921 -12.47919 37165 ft 502 kts 92°
2026-05-06 21:05 41.91513 -12.38534 37168 ft 503 kts 92°
2026-05-06 21:05 41.91097 -12.29147 37160 ft 503 kts 92°
2026-05-06 21:06 41.90673 -12.19755 37160 ft 503 kts 92°
2026-05-06 21:06 41.90242 -12.10365 37155 ft 503 kts 92°
2026-05-06 21:07 41.89802 -12.00983 37163 ft 503 kts 92°
2026-05-06 21:07 41.89355 -11.91589 37157 ft 503 kts 92°
2026-05-06 21:08 41.88904 -11.82258 37145 ft 503 kts 92°
2026-05-06 21:08 41.88441 -11.72863 37140 ft 503 kts 92°
2026-05-06 21:09 41.87971 -11.63474 37144 ft 503 kts 92°
2026-05-06 21:09 41.87494 -11.54092 37142 ft 503 kts 92°
2026-05-06 21:10 41.87008 -11.44708 37144 ft 503 kts 92°
2026-05-06 21:10 41.86515 -11.35324 37140 ft 503 kts 93°
2026-05-06 21:11 41.86014 -11.25944 37150 ft 503 kts 93°
2026-05-06 21:11 41.85507 -11.16562 37134 ft 504 kts 93°
2026-05-06 21:12 41.84994 -11.07225 37135 ft 504 kts 93°
2026-05-06 21:12 41.84470 -10.97830 37136 ft 504 kts 93°
2026-05-06 21:13 41.83939 -10.88437 37134 ft 505 kts 93°
2026-05-06 21:13 41.83399 -10.79032 37123 ft 505 kts 93°
2026-05-06 21:14 41.82851 -10.69626 37126 ft 505 kts 93°
2026-05-06 21:14 41.82295 -10.60219 37125 ft 505 kts 93°
2026-05-06 21:15 41.81733 -10.50822 37131 ft 505 kts 93°
2026-05-06 21:15 41.81161 -10.41414 37118 ft 506 kts 94°
2026-05-06 21:16 41.80581 -10.32004 37124 ft 506 kts 94°
2026-05-06 21:16 41.79994 -10.22607 37116 ft 505 kts 94°
2026-05-06 21:17 41.79400 -10.13199 37116 ft 505 kts 94°
2026-05-06 21:17 41.78899 -10.05377 37111 ft 505 kts 94°
2026-05-06 21:18 41.78191 -9.94458 37107 ft 506 kts 94°
2026-05-06 21:18 41.77674 -9.86580 37108 ft 506 kts 94°
2026-05-06 21:19 41.77055 -9.77234 37107 ft 507 kts 94°
2026-05-06 21:19 41.76421 -9.67814 37101 ft 507 kts 94°
2026-05-06 21:20 41.75778 -9.58385 37111 ft 507 kts 94°
2026-05-06 21:20 41.75129 -9.48972 37097 ft 507 kts 94°
2026-05-06 21:21 41.74473 -9.39550 37101 ft 507 kts 95°
2026-05-06 21:21 41.73807 -9.30120 37093 ft 508 kts 95°
2026-05-06 21:22 41.73134 -9.20695 37090 ft 508 kts 95°
2026-05-06 21:22 41.72453 -9.11269 37090 ft 508 kts 95°
2026-05-06 21:23 41.71769 -9.01901 37090 ft 508 kts 95°
2026-05-06 21:23 41.71073 -8.92479 37088 ft 508 kts 95°
2026-05-06 21:24 41.70365 -8.83006 37083 ft 508 kts 95°
2026-05-06 21:24 41.69656 -8.73623 37087 ft 508 kts 95°
2026-05-06 21:25 41.68936 -8.64192 37094 ft 509 kts 95°
2026-05-06 21:25 41.68207 -8.54755 37092 ft 509 kts 95°
2026-05-06 21:26 41.67470 -8.45320 37074 ft 509 kts 95°
2026-05-06 21:26 41.66725 -8.35865 37085 ft 511 kts 95°
2026-05-06 21:27 41.65971 -8.26402 37093 ft 511 kts 96°
2026-05-06 21:27 41.65207 -8.16932 37090 ft 511 kts 96°
2026-05-06 21:28 41.64441 -8.07534 37088 ft 511 kts 96°
2026-05-06 21:28 41.63663 -7.98071 37089 ft 511 kts 96°
2026-05-06 21:29 41.62876 -7.88605 37089 ft 511 kts 96°
2026-05-06 21:29 41.62083 -7.79155 37087 ft 511 kts 96°
2026-05-06 21:30 41.61281 -7.69692 37090 ft 511 kts 96°
2026-05-06 21:30 41.60471 -7.60242 37095 ft 511 kts 96°
2026-05-06 21:31 41.59655 -7.50782 37080 ft 511 kts 96°
2026-05-06 21:31 41.58834 -7.41387 37072 ft 511 kts 96°
2026-05-06 21:32 41.58000 -7.31936 37076 ft 511 kts 96°
2026-05-06 21:32 41.56737 -7.17764 37073 ft 512 kts 96°
2026-05-06 21:33 41.55882 -7.08286 37069 ft 513 kts 97°
2026-05-06 21:33 41.55018 -6.98799 37061 ft 515 kts 97°
2026-05-06 21:34 41.54582 -6.94048 36942 ft 515 kts 97°
2026-05-06 21:34 41.54142 -6.89289 36671 ft 515 kts 97°
2026-05-06 21:34 41.53702 -6.84539 36415 ft 515 kts 97°
2026-05-06 21:34 41.53260 -6.79780 36165 ft 516 kts 97°
2026-05-06 21:35 41.52815 -6.75022 35909 ft 517 kts 97°
2026-05-06 21:35 41.52367 -6.70254 35662 ft 517 kts 97°
2026-05-06 21:35 41.51916 -6.65480 35415 ft 517 kts 97°
2026-05-06 21:35 41.51464 -6.60714 35170 ft 518 kts 97°
2026-05-06 21:36 41.51009 -6.55941 34929 ft 518 kts 97°
2026-05-06 21:36 41.50551 -6.51162 34687 ft 518 kts 97°
2026-05-06 21:36 41.50097 -6.46442 34462 ft 518 kts 97°
2026-05-06 21:36 41.49634 -6.41645 34221 ft 520 kts 97°
2026-05-06 21:37 41.49169 -6.36857 33977 ft 520 kts 97°
2026-05-06 21:37 41.48807 -6.32038 33696 ft 521 kts 94°
2026-05-06 21:37 41.48662 -6.27209 33417 ft 521 kts 90°
2026-05-06 21:37 41.48746 -6.22371 33147 ft 521 kts 86°
2026-05-06 21:38 41.49042 -6.17551 32889 ft 521 kts 83°
2026-05-06 21:38 41.49408 -6.12731 32613 ft 521 kts 83°
2026-05-06 21:38 41.49787 -6.07915 32347 ft 522 kts 83°
2026-05-06 21:38 41.50164 -6.03076 32103 ft 524 kts 83°
2026-05-06 21:39 41.50893 -5.93377 32059 ft 526 kts 83°
2026-05-06 21:39 41.51602 -5.83648 32055 ft 526 kts 84°
2026-05-06 21:40 41.52125 -5.73905 32037 ft 526 kts 92°
2026-05-06 21:40 41.51678 -5.69051 32053 ft 526 kts 103°
2026-05-06 21:40 41.50598 -5.64383 32051 ft 525 kts 114°
2026-05-06 21:41 41.48917 -5.60037 32050 ft 522 kts 125°
2026-05-06 21:41 41.46732 -5.56209 32051 ft 517 kts 136°
2026-05-06 21:41 41.41537 -5.49711 32033 ft 514 kts 142°
2026-05-06 21:42 41.36205 -5.43348 32046 ft 514 kts 142°
2026-05-06 21:42 41.30893 -5.36951 32046 ft 515 kts 142°
2026-05-06 21:43 41.25595 -5.30534 32049 ft 515 kts 142°
2026-05-06 21:43 41.20296 -5.24109 32036 ft 516 kts 142°
2026-05-06 21:44 41.14984 -5.17689 32044 ft 516 kts 142°
2026-05-06 21:44 41.09677 -5.11289 31934 ft 511 kts 142°
2026-05-06 21:45 41.07050 -5.08125 31222 ft 511 kts 142°
2026-05-06 21:45 41.04397 -5.04939 29972 ft 518 kts 142°
2026-05-06 21:45 41.01716 -5.01726 28126 ft 521 kts 142°
2026-05-06 21:45 40.99063 -4.98540 27053 ft 508 kts 142°
2026-05-06 21:46 40.96491 -4.95447 26307 ft 495 kts 142°
2026-05-06 21:46 40.93956 -4.92404 25768 ft 490 kts 142°
2026-05-06 21:46 40.91414 -4.89365 25085 ft 489 kts 142°
2026-05-06 21:46 40.88890 -4.86355 24522 ft 486 kts 142°
2026-05-06 21:47 40.86392 -4.83376 24005 ft 482 kts 142°
2026-05-06 21:47 40.83907 -4.80416 23513 ft 478 kts 142°
2026-05-06 21:47 40.81481 -4.77527 22977 ft 473 kts 142°
2026-05-06 21:47 40.79050 -4.74632 22468 ft 467 kts 142°
2026-05-06 21:48 40.76645 -4.71774 22004 ft 469 kts 142°
2026-05-06 21:48 40.74169 -4.68847 21632 ft 478 kts 142°
2026-05-06 21:48 40.71692 -4.65912 21231 ft 476 kts 142°
2026-05-06 21:48 40.69247 -4.63010 20758 ft 468 kts 142°
2026-05-06 21:49 40.66835 -4.60154 20198 ft 463 kts 142°
2026-05-06 21:49 40.64451 -4.57336 19704 ft 457 kts 142°
2026-05-06 21:49 40.62153 -4.54464 19241 ft 453 kts 138°
2026-05-06 21:49 40.60001 -4.51456 18807 ft 447 kts 135°
2026-05-06 21:50 40.57917 -4.48452 18365 ft 442 kts 135°
2026-05-06 21:50 40.55855 -4.45476 17897 ft 437 kts 135°
2026-05-06 21:50 40.53822 -4.42545 17464 ft 430 kts 135°
2026-05-06 21:50 40.51815 -4.39658 17042 ft 424 kts 135°
2026-05-06 21:51 40.49829 -4.36809 16642 ft 419 kts 135°
2026-05-06 21:51 40.47870 -4.34004 16228 ft 413 kts 135°
2026-05-06 21:51 40.45937 -4.31239 15843 ft 408 kts 134°
2026-05-06 21:51 40.44018 -4.28498 15439 ft 404 kts 134°
2026-05-06 21:52 40.42125 -4.25796 15059 ft 399 kts 134°
2026-05-06 21:52 40.40239 -4.23107 14698 ft 399 kts 134°
2026-05-06 21:52 40.38363 -4.20430 14311 ft 396 kts 134°
2026-05-06 21:52 40.36525 -4.17812 13917 ft 394 kts 133°
2026-05-06 21:53 40.34877 -4.14987 13475 ft 392 kts 123°
2026-05-06 21:53 40.33607 -4.11798 13038 ft 389 kts 113°
2026-05-06 21:53 40.32695 -4.08462 12614 ft 385 kts 109°
2026-05-06 21:53 40.31873 -4.05129 12183 ft 382 kts 108°
2026-05-06 21:54 40.31070 -4.01825 11769 ft 379 kts 108°
2026-05-06 21:54 40.30267 -3.98558 11352 ft 376 kts 108°
2026-05-06 21:54 40.29460 -3.95308 10938 ft 373 kts 108°
2026-05-06 21:54 40.28662 -3.92123 10742 ft 361 kts 108°
2026-05-06 21:55 40.27891 -3.89058 10629 ft 347 kts 108°
2026-05-06 21:55 40.27146 -3.86109 10508 ft 334 kts 109°
2026-05-06 21:55 40.26427 -3.83273 10391 ft 322 kts 109°
2026-05-06 21:55 40.25735 -3.80538 10271 ft 310 kts 109°
2026-05-06 21:56 40.25065 -3.77896 10171 ft 299 kts 109°
2026-05-06 21:56 40.24419 -3.75349 10072 ft 291 kts 109°
2026-05-06 21:56 40.23793 -3.72885 9926 ft 277 kts 109°
2026-05-06 21:56 40.23201 -3.70551 9657 ft 263 kts 109°
2026-05-06 21:57 40.22637 -3.68333 9427 ft 248 kts 109°
2026-05-06 21:57 40.22106 -3.66252 9202 ft 233 kts 109°
2026-05-06 21:57 40.21605 -3.64289 8926 ft 221 kts 109°
2026-05-06 21:57 40.21125 -3.62413 8719 ft 215 kts 109°
2026-05-06 21:58 40.20650 -3.60558 8513 ft 214 kts 109°
2026-05-06 21:58 40.20177 -3.58709 8281 ft 213 kts 109°
2026-05-06 21:58 40.19707 -3.56869 8116 ft 212 kts 109°
2026-05-06 21:58 40.19239 -3.55039 7944 ft 211 kts 109°
2026-05-06 21:59 40.18772 -3.53220 7747 ft 210 kts 109°
2026-05-06 21:59 40.18308 -3.51407 7555 ft 210 kts 109°
2026-05-06 21:59 40.17850 -3.49621 7401 ft 209 kts 109°
2026-05-06 21:59 40.17444 -3.47796 7282 ft 209 kts 96°
2026-05-06 22:00 40.17589 -3.45927 7193 ft 208 kts 70°
2026-05-06 22:00 40.18336 -3.44335 7119 ft 205 kts 45°
2026-05-06 22:00 40.19358 -3.43069 6971 ft 200 kts 39°
2026-05-06 22:00 40.20428 -3.41897 6592 ft 200 kts 35°
2026-05-06 22:01 40.21570 -3.40886 6326 ft 195 kts 30°
2026-05-06 22:01 40.22731 -3.40028 6019 ft 188 kts 27°
2026-05-06 22:01 40.23855 -3.39222 5803 ft 181 kts 27°
2026-05-06 22:01 40.24977 -3.38552 5574 ft 173 kts 17°
2026-05-06 22:02 40.26098 -3.38192 5409 ft 161 kts
2026-05-06 22:02 40.27209 -3.38065 5265 ft 160 kts
2026-05-06 22:02 40.28314 -3.37980 5096 ft 159 kts
2026-05-06 22:02 40.29399 -3.37901 5002 ft 158 kts
2026-05-06 22:03 40.30498 -3.37818 4998 ft 158 kts
2026-05-06 22:03 40.31569 -3.38073 4995 ft 158 kts 339°
2026-05-06 22:03 40.32546 -3.38734 4995 ft 158 kts 329°
2026-05-06 22:03 40.33460 -3.39534 4993 ft 158 kts 326°
2026-05-06 22:04 40.34352 -3.40379 4993 ft 158 kts 324°
2026-05-06 22:04 40.35231 -3.41248 4940 ft 158 kts 323°
2026-05-06 22:04 40.36102 -3.42127 4727 ft 157 kts 323°
2026-05-06 22:04 40.36965 -3.43007 4513 ft 157 kts 323°
2026-05-06 22:05 40.37819 -3.43881 4303 ft 153 kts 323°
2026-05-06 22:05 40.38662 -3.44745 4082 ft 151 kts 323°
2026-05-06 22:05 40.39492 -3.45594 3879 ft 151 kts 323°
2026-05-06 22:05 40.40320 -3.46443 3680 ft 151 kts 323°
2026-05-06 22:06 40.40868 -3.47002 3565 ft 150 kts 323°
2026-05-06 22:06 40.41961 -3.48118 3298 ft 150 kts 323°
2026-05-06 22:06 40.42788 -3.48962 3049 ft 152 kts 323°
2026-05-06 22:06 40.43357 -3.49542 2920 ft 153 kts 324°
2026-05-06 22:07 40.44474 -3.50681 2641 ft 153 kts 324°
2026-05-06 22:07 40.45314 -3.51537 2430 ft 153 kts 322°
2026-05-06 22:07 40.45880 -3.52115 2304 ft 152 kts 322°
2026-05-06 22:07 40.46768 -3.53019 2164 ft 162 kts 322°
2026-05-06 22:08 40.47643 -3.53903 1989 ft 156 kts 323°
2026-05-06 22:08 40.48412 -3.54688 1963 ft 114 kts 322°
2026-05-06 22:08 40.48859 -3.55140 1985 ft 51 kts 322°
2026-05-06 22:08 40.49073 -3.55359 1989 ft 34 kts 319°
2026-05-06 22:09 40.49213 -3.55598 1993 ft 32 kts 295°
2026-05-06 22:09 40.49270 -3.55775 1996 ft 11 kts 293°
2026-05-06 22:09 40.49299 -3.55877 1996 ft 13 kts 284°
2026-05-06 22:09 40.49303 -3.56013 1991 ft 17 kts 269°
2026-05-06 22:10 40.49301 -3.56116 1988 ft 6 kts 269°
2026-05-06 22:10 40.49300 -3.56188 1988 ft 5 kts 268°
2026-05-06 22:10 40.49274 -3.56238 1985 ft 9 kts 205°
2026-05-06 22:10 40.49196 -3.56249 1983 ft 11 kts 184°
2026-05-06 22:11 40.49153 -3.56284 1978 ft 10 kts 246°
2026-05-06 22:11 40.49152 -3.56311 1978 ft 0 kts 286°
2026-05-06 22:11 40.49153 -3.56339 1978 ft 5 kts 269°
2026-05-06 22:11 40.49153 -3.56353 1975 ft 0 kts 269°
2026-05-06 22:14 40.42198 -3.48360 3239 ft 0 kts 323°
2026-05-06 22:14 40.43031 -3.49210 2994 ft 0 kts 324°